User: anonymous   Login
Location: Unspecified
(0.0000°N, 0.0000°E)
Time: 17:56:34
(UTC+00:00)
Language:

Temisat - Orbit

View from above orbital plane
View from above orbital plane
View from above satellite
View from above satellite

Ground track
Ground track

The orbit data is extracted from the following two-line orbital elements,

1 22783U 93055B   18113.58968567 +.00000026 +00000-0 +10713-4 0  9996
2 22783 082.5486 139.3358 0021477 279.5159 080.3574 13.83692810244297
Epoch (UTC): 23 April 2018 14:09:08
Eccentricity: 0.0021477
inclination: 82.5486°
perigee height: 935 km
apogee height: 966 km
right ascension of ascending node: 139.3358°
argument of perigee: 279.5159°
revolutions per day: 13.83692810
mean anomaly at epoch: 80.3574°
orbit number at epoch: 24429

The dashed part of the orbit path shows where the satellite is in the earth's shadow,  

DLR